Simultaneous Nadir Overpasses (SNOs) Predictions

Prediction of SNOs between GOES-15 and TERRA Satellite Orbit:

Table of predicted SNOs for the next 14.0 days since TLE Epoch: 3/12/2022
Index Date Time (GOES-15) GOES-15 Lat,Lon TERRA Lat,Lon Distance(km) Time Diff (sec)
1 03/12/2022 07:07:12 0.03,-127.86 -0.77,-131.53 418.27 80
2 03/14/2022 06:54:58 0.03,-127.93 -0.10,-128.59 74.63 80
3 03/16/2022 06:45:23 0.03,-127.99 0.52,-125.63 268.83 80
4 03/16/2022 19:03:58 -0.03,-128.02 0.56,-130.79 315.14 80
5 03/18/2022 18:54:23 -0.03,-128.08 -0.07,-127.83 28.08 80
6 03/20/2022 18:42:08 -0.03,-128.14 -0.71,-124.88 370.77 80
7 03/21/2022 07:00:51 0.03,-128.15 -0.35,-130.08 219.13 80
8 03/23/2022 06:51:15 0.04,-128.19 0.24,-127.11 122.47 80
9 03/23/2022 19:09:50 -0.05,-128.21 0.82,-132.27 462.37 80
10 03/25/2022 06:39:01 0.04,-128.23 0.90,-124.16 463.13 80
11 03/25/2022 18:57:35 -0.05,-128.25 0.16,-129.32 121.84 80
